Home > Weather > Narva > Past weeks

Flag for Estonia Past Weather in Narva, Estonia — Yesterday and Last 2 Weeks

Now
61 °F

Cool.


Feels Like: 61 °F
Forecast: 60 / 79 °F
Wind: 2 mph from Southwest

Location: Narva

Current Time: Jul 27, 2016 at 4:12:02 AM

Latest Report: Jul 27, 2016 at 3:00 AM


Visibility: N/A

Pressure: 29.99 "Hg

Humidity: 100%

Dew Point: 61 °F

Location of NarvaLocation

Past Weather in Narva — Graph

°F

Narva Temperature Yesterday

Maximum temperature yesterday: 78 °F (at 4:00 PM)
Minimum temperature yesterday: 59 °F (at 5:00 AM)
Average temperature yesterday: 70 °F

High & Low Weather Summary for the Past Weeks

 TemperatureHumidityPressure
High78 °F (Jul 25, 5:00 PM)100% (Jul 16, 11:00 PM)30.15 "Hg (Jul 16, 11:00 PM)
Low54 °F (Jul 14, 4:00 AM)50% (Jul 14, 3:00 PM)29.55 "Hg (Jul 12, 5:00 AM)
Average65 °F85%29.90 "Hg
* Reported Jul 12 2:00 AM — Jul 27 2:00 AM, Narva, Weather by CustomWeather, © 2016

Note: Actual official high and low records may vary slightly from our data, if they occured in-between our weather recording intervals... More about our weather records

Advertising

Narva Weather History for the Previous 24 Hours

Scroll right to see more
 ConditionsComfort  
Time TempWeatherWind HumidityBarometerVisibility
2:00 AM
Wed, Jul 27
62 °FCool.No wind99%29.98 "HgN/A
1:00 AM62 °FCool.1 mph99%29.98 "HgN/A
12:00 AM64 °FMild.2 mph97%29.98 "HgN/A
11:00 PM
Tue, Jul 26
62 °FMild.2 mph96%29.98 "HgN/A
10:00 PM67 °FMild.1 mph97%29.98 "HgN/A
9:00 PM74 °FMild.1 mph80%29.98 "HgN/A
8:00 PM76 °FMild.1 mph74%29.98 "HgN/A
7:00 PM76 °FMild.3 mph73%29.98 "HgN/A
6:00 PM77 °FMild.2 mph65%29.98 "HgN/A
5:00 PM78 °FWarm.2 mph66%29.98 "HgN/A
4:00 PM78 °FWarm.2 mph66%29.99 "HgN/A
3:00 PM78 °FWarm.2 mph65%29.99 "HgN/A
2:00 PM77 °FWarm.5 mph64%30.01 "HgN/A
1:00 PM75 °FMild.5 mph67%30.03 "HgN/A
12:00 PM75 °FMild.5 mph69%30.04 "HgN/A
11:00 AM74 °FMild.1 mph75%30.03 "HgN/A
10:00 AM75 °FMild.1 mph72%30.04 "HgN/A
9:00 AM72 °FMild.5 mph86%30.05 "HgN/A
8:00 AM70 °FMild.2 mph94%30.04 "HgN/A
7:00 AM66 °FMild.1 mph99%30.05 "HgN/A
6:00 AM62 °FCool.1 mph100%30.04 "HgN/A
5:00 AM59 °FCool.1 mph99%30.05 "HgN/A
4:00 AM62 °FCool.1 mph100%30.05 "HgN/A
Weather by CustomWeather, © 2016

See weather overviewHow to use our weather pages